TimeAST,TemperatureF,Dew PointF,Humidity,Sea Level PressureIn,VisibilityMPH,Wind Direction,Wind SpeedMPH,Gust SpeedMPH,PrecipitationIn,Events,Conditions,WindDirDegrees,DateUTC
12:55 AM,69.1,47.1,45,29.96,6.2,WSW,3.5,-,N/A,,Clear,240,2012-11-06 21:55:00
1:55 AM,68.7,48.0,48,29.95,6.2,West,8.1,-,N/A,,Clear,260,2012-11-06 22:55:00
2:55 AM,67.5,48.6,51,29.96,6.2,WSW,6.9,-,N/A,,Clear,250,2012-11-06 23:55:00
3:55 AM,66.6,48.2,52,29.95,6.2,WSW,5.8,-,N/A,,Clear,240,2012-11-07 00:55:00
4:55 AM,66.9,48.0,51,29.97,6.2,West,5.8,-,N/A,,Clear,260,2012-11-07 01:55:00
5:55 AM,66.4,48.0,52,29.99,6.2,West,6.9,-,N/A,,Clear,260,2012-11-07 02:55:00
6:55 AM,69.6,54.9,59,30.01,6.2,West,8.1,-,N/A,,Clear,260,2012-11-07 03:55:00
7:55 AM,76.3,57.4,52,30.02,6.2,West,9.2,-,N/A,,Clear,260,2012-11-07 04:55:00
8:55 AM,83.1,50.9,33,30.03,6.2,West,10.4,-,N/A,,Clear,270,2012-11-07 05:55:00
9:55 AM,87.3,50.0,28,30.01,6.2,WNW,13.8,-,N/A,,Clear,290,2012-11-07 06:55:00
10:55 AM,90.5,46.2,22,29.98,6.2,WNW,13.8,-,N/A,,Clear,300,2012-11-07 07:55:00
11:55 AM,92.3,46.4,21,29.96,6.2,WNW,15.0,-,N/A,,Clear,300,2012-11-07 08:55:00
12:55 PM,92.7,45.3,20,29.93,6.2,WNW,10.4,-,N/A,,Clear,300,2012-11-07 09:55:00
1:55 PM,92.3,44.1,19,29.92,6.2,NW,12.7,-,N/A,,Clear,320,2012-11-07 10:55:00
2:55 PM,92.1,44.8,19,29.91,6.2,WNW,15.0,-,N/A,,Clear,300,2012-11-07 11:55:00
3:55 PM,90.1,46.2,22,29.92,6.2,NW,13.8,-,N/A,,Clear,320,2012-11-07 12:55:00
4:55 PM,86.7,50.7,29,29.93,6.2,NNW,12.7,-,N/A,,Clear,330,2012-11-07 13:55:00
5:55 PM,82.2,55.4,40,29.95,6.2,NNW,6.9,-,N/A,,Clear,330,2012-11-07 14:55:00
6:55 PM,79.2,54.7,43,29.96,6.2,NNW,6.9,-,N/A,,Clear,330,2012-11-07 15:55:00
7:55 PM,78.3,60.8,55,29.97,6.2,NNW,6.9,-,N/A,,Clear,340,2012-11-07 16:55:00
8:55 PM,77.4,70.3,79,29.96,6.2,North,6.9,-,N/A,,Clear,350,2012-11-07 17:55:00
9:55 PM,74.1,69.3,85,29.96,6.2,Calm,Calm,-,N/A,,Clear,0,2012-11-07 18:55:00
10:55 PM,72.1,67.8,86,29.94,5.6,West,3.5,-,N/A,,Haze,280,2012-11-07 19:55:00
11:55 PM,70.5,65.8,85,29.93,5.6,West,6.9,-,N/A,,Haze,280,2012-11-07 20:55:00